Regional Weather Roundup
Issued by NWS

Home | Current Version | Previous Version | Graphics & Text | Print | Product List | Glossary Off
Versions: 1 2 3 4 5 6 7 8 9 10 11 12 13 14 15 16 17 18 19 20 21 22 23 24 25 26 27 28 29 30 31 32 33 34 35 36 37 38 39 40 41 42 43 44 45 46 47 48 49 50

000
ASUS43 KDMX 240103
RWRIA

WEATHER ROUNDUP FOR IOWA
NATIONAL WEATHER SERVICE DES MOINES IA
800 PM CDT TUE AUG 23 2016

NOTE: "FAIR" INDICATES FEW OR NO CLOUDS BELOW 12,000 FEET WITH NO
SIGNIFICANT WEATHER AND/OR OBSTRUCTIONS TO VISIBILITY.

* - THESE STATIONS ARE NOT NWS STATIONS...THUS NOT UNDER NWS
QUALITY CONTROL.  THEY ALSO DO NOT REPORT WEATHER SUCH
AS PRECIPITATION OR FOG.

IAZ001>003-012>014-020>022-031>034-043>046-240200-
   NORTHWEST IOWA

CITY           SKY/WX    TMP DP  RH WIND       PRES   REMARKS
CARROLL *      CLOUDY    77  73  88 S9        29.85S
CHEROKEE *     CLOUDY    75  74  95 S5        29.81S
DENISON *      MOCLDY    77  73  88 S12G20    29.81R
LE MARS *      CLOUDY    77  73  88 SE5       29.79R
ORANGE CITY *  PTCLDY    75  72  88 SE3       29.81R
SHELDON *      CLOUDY    72  72 100 SE10G17   29.80R
SIOUX CITY     CLOUDY    78  74  87 S12       29.78S HX  81
SPENCER        CLOUDY    70  68  93 SE9       29.83S
STORM LAKE *   PTCLDY    73  72  94 S12       29.83F
$$

IAZ055>058-069>071-079>083-090>094-240200-
   SOUTHWEST IOWA

CITY           SKY/WX    TMP DP  RH WIND       PRES   REMARKS
ATLANTIC *     CLOUDY    79  73  83 S18       29.84S HX  82
AUDUBON *      CLOUDY    77  72  83 S8G17     29.87R
CLARINDA *       N/A     81  75  83 MISG      29.88S HX  86
COUNCIL BLFS * MOCLDY    79  75  89 SE12      29.82S HX  82
CRESTON *      PTCLDY    77  73  88 S15G23    29.90F
HARLAN  *      MOCLDY    77  73  88 S12G22    29.86R FOG
LAMONI         PTCLDY    76  73  91 S15G24    29.91F
RED OAK *      PTCLDY    81  75  83 S12G18    29.86R HX  86
SHENANDOAH *   CLEAR     81 -13   2 S14       29.85R
$$

IAZ047>049-059>061-072>074-084-240200-
   CENTRAL IOWA

CITY           SKY/WX    TMP DP  RH WIND       PRES   REMARKS
AMES           PTCLDY    76  73  91 S15G24    29.88F
ANKENY *         N/A    N/A N/A N/A MISG        N/A
BOONE *        CLOUDY    75  72  88 S12G18    29.87S
CHARITON *       N/A     75  72  88 MISG      29.91F
DES MOINES     PTCLDY    78  72  81 S15       29.88F HX  80
GRINNELL*      PTCLDY    75  70  86 SE12      29.94F
KNOXVILLE *    CLOUDY    75  72  88 S10       29.91F
MARSHALLTOWN   CLOUDY    76  72  87 S13       29.90F
NEWTON *       CLOUDY    75  73  94 S13       29.91F
PERRY *        CLOUDY    77  74  92 SE14G20   29.86F
$$

IAZ004>006-015-016-023>025-035-036-240200-
   NORTH CENTRAL IOWA

CITY           SKY/WX    TMP DP  RH WIND       PRES   REMARKS
ALGONA *       CLOUDY    68  66  94 SE12      29.86F
ESTHERVILLE    CLOUDY    65  65 100 SE10      29.84F
FORT DODGE *   CLOUDY    75  70  83 S12G18    29.88S
MASON CITY     LGT RAIN  66  65  96 SE12G18   29.91F
FOREST CITY *  HVY RAIN  64  64 100 SE9       29.88F
WEBSTER CITY * CLOUDY    75  72  88 S10G17    29.86S
IOWA FALLS *   CLOUDY    74  71  88 SE9G16    29.91S
$$

IAZ007>011-017>019-026>030-037>042-050>054-066-240200-
   NORTHEAST IOWA

CITY           SKY/WX    TMP DP  RH WIND       PRES   REMARKS
CEDAR RAPIDS   CLOUDY    74  72  93 S13G22    29.97F
CHARLES CITY * HVY RAIN  66  66 100 E8        29.94S VSB 1/2
DECORAH *      LGT RAIN  70  66  88 W13G28    30.00R
DUBUQUE        CLOUDY    73  67  81 S15       30.01F
MONTICELLO *   CLOUDY    73  68  83 S15G21    29.99S
OELWEIN *      CLOUDY    73  70  88 SE15G23   29.95F
WATERLOO       CLOUDY    74  69  85 S17G25    29.91F
$$

IAZ064-065-067-068-078-240200-
   EAST CENTRAL IOWA

CITY           SKY/WX    TMP DP  RH WIND       PRES   REMARKS
DAVENPORT      CLOUDY    74  67  78 S15G24    30.03F
IOWA CITY      CLOUDY    75  70  84 S15G23    30.00F
MT. PLEASANT * MOCLDY    75  72  90 SE7       30.00F
MUSCATINE *    CLOUDY    75  68  78 S16G22    30.01F
QUAD CITIES    CLOUDY    74  67  78 SE12      30.03F
$$

IAZ062-063-075>077-085>089-095>099-240200-
   SOUTHEAST IOWA

CITY           SKY/WX    TMP DP  RH WIND       PRES   REMARKS
BURLINGTON     CLOUDY    73  70  90 S13       30.02F
FAIRFIELD *    CLOUDY    75  70  83 SE15      29.97F
FORT MADISON * CLOUDY    73  70  88 SE7       30.03F
KEOKUK *       CLOUDY    73  72  94 SE10      30.01F
OSKALOOSA *    MOCLDY    74  70  88 S10G17    29.96F
CENTERVILLE *    N/A     73  72  94 SE10      29.97F
OTTUMWA        CLOUDY    74  70  87 S10G21    29.94F
WASHINGTON *   CLOUDY    73  72  94 SE13      29.99F
$$

ABBREVIATIONS USED IN REMARKS
   TC - TEMPERATURES IN CELSIUS
  WCI - WIND CHILL INDEX
   HX - HEAT INDEX
  VSB - VISIBILITY
$$





USA.gov is the U.S. government's official web portal to all federal, state and local government web resources and services.